Santiago de Cuba, Cuba

5:21 PM CST on November 17, 2018 (GMT -0500)
Antonio Maceo International

Weather History for MUCU - November, 2018

Change the Weather History Date:

Friday, November 9, 2018

  Actual Average Record
Temperature  
Mean Temperature 80 °F -  
Max Temperature 89 °F 82 °F 89 °F (2005)
Min Temperature 71 °F 70 °F 68 °F (2007)
Cooling Degree Days 15    
Growing Degree Days 30 (Base 50)    
Moisture  
Dew Point 68 °F    
Average Humidity 68    
Maximum Humidity 88    
Minimum Humidity 38    
Precipitation  
Precipitation 0.00 in - - ()
Sea Level Pressure  
Sea Level Pressure 29.93 in    
Wind  
Wind Speed 6 mph ()    
Max Wind Speed 11 mph    
Max Gust Speed -    
Visibility 5.7 miles    
Events      
Averages and records for this station are not official NWS values.
T = Trace of Precipitation, MM = Missing Value Source: Averaged Metar Reports

Daily Weather History Graph

Daily Weather History Graph

Search for Another Location

Airport or City:

Astronomy

Nov. 09, 2018 Rise Set
Actual Time 6:08 AM CST 5:25 PM CST
Civil Twilight 5:45 AM CST 5:48 PM CST
Nautical Twilight 5:19 AM CST 6:14 PM CST
Astronomical Twilight 4:53 AM CST 6:40 PM CST
Moon 7:50 AM CST (11/9) 7:16 PM CST (11/9)
Length of Visible Light 12h 02m
Length of Day
11h 16m
Waxing Crescent, 5% of the Moon is Illuminated
Nov 9
Waxing Crescent
Nov 15
First Quarter
Nov 23
Full
Nov 29
Last Quarter
Dec 7
New

Hourly Weather History & Observations

Time (CST) Temp. Heat Index Dew Point Humidity Pressure Visibility Wind Dir Wind Speed Gust Speed Precip Events Conditions
12:50 AM 73.4 °F - 68.0 °F 83% 29.92 in 5.6 mi NNW 4.6 mph - N/A   Partly Cloudy
1:00 AM 74 °F - 68 °F 78% 29.94 in 6 mi NNW 4.5 mph - -   Scattered Clouds
1:50 AM 73.4 °F - 68.0 °F 83% 29.92 in 5.6 mi North 5.8 mph - N/A   Partly Cloudy
2:50 AM 73.4 °F - 68.0 °F 83% 29.92 in 5.6 mi North 6.9 mph - N/A   Partly Cloudy
3:50 AM 71.6 °F - 68.0 °F 88% 29.92 in 5.6 mi North 5.8 mph - N/A   Partly Cloudy
4:00 AM 72 °F - 67 °F 81% 29.93 in 6 mi North 6.7 mph - -   Scattered Clouds
4:50 AM 71.6 °F - 66.2 °F 83% 29.92 in 5.6 mi North 5.8 mph - N/A   Partly Cloudy
5:50 AM 71.6 °F - 66.2 °F 83% 29.92 in 5.6 mi NNW 5.8 mph - N/A   Partly Cloudy
6:50 AM 73.4 °F - 68.0 °F 83% 29.92 in 5.6 mi North 5.8 mph - N/A   Partly Cloudy
7:50 AM 78.8 °F - 68.0 °F 69% 29.95 in 5.6 mi North 6.9 mph - N/A   Partly Cloudy
8:50 AM 84.2 °F 87.3 °F 68.0 °F 58% 29.98 in 5.6 mi North 6.9 mph - N/A   Partly Cloudy
9:51 AM 87.8 °F 89.4 °F 64.4 °F 46% 29.95 in 5.6 mi NE 4.6 mph - N/A   Partly Cloudy
10:00 AM 87 °F - 65 °F 38% 29.97 in 6 mi NE 4.5 mph - -   Haze
10:51 AM 89.6 °F 92.2 °F 66.2 °F 46% 29.95 in 5.6 mi NE 4.6 mph - N/A   Partly Cloudy
11:51 AM 87.8 °F 89.4 °F 64.4 °F 46% 29.92 in 5.6 mi South 8.1 mph - N/A   Scattered Clouds
12:51 PM 86.0 °F 89.4 °F 68.0 °F 55% 29.89 in 5.6 mi South 10.4 mph - N/A   Scattered Clouds
1:00 PM 86 °F - 67 °F 44% 29.91 in 6 mi South 11.2 mph - -   Haze
1:51 PM 86.0 °F 89.4 °F 68.0 °F 55% 29.86 in 5.6 mi South 9.2 mph - N/A   Scattered Clouds
2:51 PM 86.0 °F 90.4 °F 69.8 °F 58% 29.86 in 5.6 mi South 8.1 mph - N/A   Partly Cloudy
3:51 PM 84.2 °F 88.4 °F 69.8 °F 62% 29.89 in 5.6 mi SSE 6.9 mph - N/A   Partly Cloudy
4:51 PM 82.4 °F 87.2 °F 71.6 °F 70% 29.89 in 5.6 mi SSE 6.9 mph - N/A   Scattered Clouds
5:53 PM 82.4 °F 87.2 °F 71.6 °F 70% 29.89 in 5.6 mi SSE 5.8 mph - N/A   Scattered Clouds
6:50 PM 78.8 °F - 68.0 °F 69% 29.92 in 5.6 mi NE 9.2 mph - N/A   Scattered Clouds
7:00 PM 79 °F - 68 °F 61% 29.94 in 6 mi NE 8.9 mph - -   Haze
7:51 PM 77.0 °F - 66.2 °F 69% 29.92 in 5.6 mi NNE 5.8 mph - N/A   Partly Cloudy
8:50 PM 77.0 °F - 69.8 °F 78% 29.95 in 5.6 mi NNW 5.8 mph - N/A   Partly Cloudy
9:50 PM 77.0 °F - 69.8 °F 78% 29.95 in 5.6 mi North 5.8 mph - N/A   Partly Cloudy
10:00 PM 77 °F - 69 °F 70% 29.96 in 6 mi North 6.7 mph - -   Haze
10:50 PM 77.0 °F - 69.8 °F 78% 29.95 in 5.6 mi North 5.8 mph - N/A   Partly Cloudy
11:51 PM 75.2 °F - 69.8 °F 83% 29.95 in 5.6 mi North 5.8 mph - N/A   Partly Cloudy